Lancaster, CA

5:17 AM PST on November 13, 2019 (GMT -0800)
Gen Fox

Weather History for KWJF - October, 2019

Change the Weather History Date:

Wednesday, October 16, 2019

  Actual Average Record
Temperature  
Mean Temperature 63 °F 63 °F  
Max Temperature 85 °F 79 °F 95 °F (1958)
Min Temperature 40 °F 46 °F 30 °F (2018)
Degree Days  
Heating Degree Days 2    
Month to date heating degree days 84  
Since 1 July heating degree days 97  
Cooling Degree Days 0    
Month to date cooling degree days 10  
Year to date cooling degree days 1812  
Growing Degree Days 12 (Base 50)    
Moisture  
Dew Point 24 °F    
Average Humidity 23    
Maximum Humidity 34    
Minimum Humidity 12    
Precipitation  
Precipitation 0.00 in 0.02 in 0.02 in (2005)
Month to date precipitation 0.00 0.17  
Year to date precipitation 5.51 5.42  
Snow  
Snow 0.00 in - 0.00 in ()
Month to date snowfall 0.0  
Since 1 July snowfall 0.0  
Since 1 September snowfall 0.0  
Snow Depth 0.00 in    
Sea Level Pressure  
Sea Level Pressure 29.97 in    
Wind  
Wind Speed 4 mph (West)    
Max Wind Speed 14 mph    
Max Gust Speed 17 mph    
Visibility 10 miles    
Events      
T = Trace of Precipitation, MM = Missing Value Source: NWS Daily Summary

Daily Weather History Graph

Daily Weather History Graph

Search for Another Location

Airport or City:

Astronomy

Oct. 16, 2019 Rise Set
Actual Time 6:59 AM PDT 6:17 PM PDT
Civil Twilight 6:33 AM PDT 6:42 PM PDT
Nautical Twilight 6:04 AM PDT 7:11 PM PDT
Astronomical Twilight 5:35 AM PDT 7:40 PM PDT
Moon 8:18 PM PDT (10/16) 9:29 AM PDT (10/16)
Length of Visible Light 12h 08m
Length of Day
11h 17m
Waning Gibbous, 92% of the Moon is Illuminated
Oct 16
Waning Gibbous
Oct 21
Last Quarter
Oct 27
New
Nov 4
First Quarter
Nov 12
Full

Hourly Weather History & Observations

Time (PDT) Temp. Windchill Dew Point Humidity Pressure Visibility Wind Dir Wind Speed Gust Speed Precip Events Conditions
12:56 AM 52.0 °F - 15.1 °F 23% 30.05 in 10.0 mi WNW 5.8 mph - N/A   Clear
1:56 AM 52.0 °F - 16.0 °F 24% 30.05 in 10.0 mi Calm Calm - N/A   Clear
2:56 AM 46.0 °F 44.8 °F 12.9 °F 26% 30.05 in 10.0 mi North 3.5 mph - N/A   Clear
3:56 AM 45.0 °F 42.6 °F 14.0 °F 29% 30.04 in 10.0 mi WNW 4.6 mph - N/A   Clear
4:56 AM 45.0 °F - 14.0 °F 29% 30.04 in 10.0 mi Calm Calm - N/A   Clear
5:56 AM 43.0 °F 41.3 °F 14.0 °F 31% 30.06 in 10.0 mi West 3.5 mph - N/A   Clear
6:56 AM 41.0 °F - 14.0 °F 33% 30.08 in 10.0 mi Calm Calm - N/A   Clear
7:56 AM 46.0 °F 44.8 °F 19.0 °F 34% 30.10 in - West 3.5 mph - N/A   Clear
8:56 AM 55.0 °F - 21.9 °F 28% 30.09 in - Calm Calm - N/A   Clear
9:56 AM 64.9 °F - 21.9 °F 19% 30.07 in - Calm Calm - N/A   Clear
10:56 AM 73.9 °F - 25.0 °F 16% 30.04 in - Calm Calm - N/A   Clear
11:56 AM 78.1 °F - 23.0 °F 13% 30.01 in - NNE 5.8 mph - N/A   Clear
12:56 PM 82.0 °F - 26.1 °F 13% 29.96 in - Calm Calm - N/A   Clear
1:56 PM 82.9 °F - 26.1 °F 13% 29.92 in - Calm Calm - N/A   Clear
2:56 PM 82.9 °F - 27.0 °F 13% 29.89 in - Calm Calm - N/A   Clear
3:56 PM 82.9 °F - 28.9 °F 14% 29.88 in - Calm Calm - N/A   Clear
4:56 PM 82.0 °F - 30.0 °F 15% 29.87 in - SW 4.6 mph - N/A   Clear
5:56 PM 81.0 °F - 35.1 °F 19% 29.86 in - SW 10.4 mph - N/A   Clear
6:56 PM 73.9 °F - 36.0 °F 25% 29.87 in - WSW 10.4 mph - N/A   Clear
7:56 PM 70.0 °F - 35.1 °F 28% 29.87 in - WSW 6.9 mph - N/A   Clear
8:56 PM 69.1 °F - 33.1 °F 26% 29.86 in - West 10.4 mph - N/A   Clear
9:56 PM 66.9 °F - 32.0 °F 27% 29.85 in - West 8.1 mph - N/A   Clear
10:56 PM 63.0 °F - 30.0 °F 29% 29.84 in - West 9.2 mph - N/A   Clear
11:56 PM 64.9 °F - 32.0 °F 29% 29.83 in - West 10.4 mph - N/A   Clear